Regional Weather Roundup
Issued by NWS

Home | Current Version | Previous Version | Text Only | Print | Product List | Glossary On
Versions: 1 2 3 4 5 6 7 8 9 10 11 12 13 14 15 16 17 18 19 20 21 22 23 24 25 26 27 28 29 30 31 32 33 34 35 36 37 38 39 40 41 42 43 44 45 46 47 48 49 50
000
ASUS43 KBIS 212020
RWRND

NORTH DAKOTA REGIONAL WEATHER ROUNDUP
NATIONAL WEATHER SERVICE BISMARCK ND
300 PM CDT THU AUG 21 2014

NOTE: "FAIR" INDICATES FEW OR NO CLOUDS BELOW 12,000 FEET WITH NO
SIGNIFICANT WEATHER AND/OR OBSTRUCTIONS TO VISIBILITY.


NDZ001>003-009>011-017-212100-
NORTHWEST NORTH DAKOTA

CITY           SKY/WX    TMP DP  RH WIND       PRES   REMARKS
WILLISTON      CLOUDY    70  58  65 NW8       29.96S
MINOT          CLOUDY    73  61  65 NW14      29.88R
MINOT AFB      MOSUNNY   74  63  69 NW14      29.87S
$$

NDZ018>021-031>035-040>046-212100-
SOUTHWEST NORTH DAKOTA

CITY           SKY/WX    TMP DP  RH WIND       PRES   REMARKS
BISMARCK       MOSUNNY   80  64  58 NW13      29.87S
DICKINSON      MOSUNNY   79  61  53 N9        29.93S
GARRISON         N/A     77  62  59 NW15      29.89R
HETTINGER ARPT SUNNY     80  58  46 N8        29.94S
$$

NDZ004>008-012>016-024-026-027-054-212100-
NORTHEAST NORTH DAKOTA

CITY           SKY/WX    TMP DP  RH WIND       PRES   REMARKS
GRAND FORKS    CLOUDY    76  68  76 CALM      29.79R
GRND FRKS AFB  CLOUDY    77  72  83 SE5       29.80S
DEVILS LAKE    CLOUDY    73  64  73 N8        29.81R
$$

NDZ022-023-025-028>030-036>039-047>053-212100-
SOUTHEAST NORTH DAKOTA

CITY           SKY/WX    TMP DP  RH WIND       PRES   REMARKS
FARGO          CLOUDY    76  69  79 E10       29.78R
JAMESTOWN      PTSUNNY   77  68  73 NW10      29.81R
$$



USA.gov is the U.S. government's official web portal to all federal, state and local government web resources and services.